Meteo pe oră la Dziewoklucz

Astăzi, 8 Martie, Luni

Timp Temperatura Precipitaţii Vânt Presiune Umiditate
00:00 -3°C° 0.1 mm 2 m/s 754 mmHg 84%
01:00 -3°C° 0.1 mm 2 m/s 754 mmHg 83%
02:00 -3°C° 0 mm 2 m/s 754 mmHg 81%
03:00 -3°C° 0 mm 2 m/s 754 mmHg 78%
04:00 -3°C° 0 mm 2 m/s 755 mmHg 76%
05:00 -3°C° 0 mm 2 m/s 755 mmHg 74%
06:00 -3°C° 0 mm 2 m/s 755 mmHg 73%
07:00 -3°C° 0 mm 2 m/s 756 mmHg 71%
08:00 -2°C° 0 mm 3 m/s 756 mmHg 64%
09:00 0°C° 0 mm 3 m/s 757 mmHg 57%
10:00 0°C° 0 mm 4 m/s 757 mmHg 50%
11:00 0°C° 0 mm 4 m/s 757 mmHg 48%
12:00 +1°C° 0 mm 4 m/s 758 mmHg 47%
13:00 +1°C° 0 mm 4 m/s 758 mmHg 45%
14:00 +1°C° 0 mm 4 m/s 758 mmHg 46%
15:00 +1°C° 0 mm 4 m/s 758 mmHg 48%
16:00 +1°C° 0 mm 4 m/s 758 mmHg 49%
17:00 0°C° 0 mm 3 m/s 758 mmHg 55%
18:00 -1°C° 0 mm 3 m/s 758 mmHg 62%
19:00 -2°C° 0 mm 2 m/s 758 mmHg 68%
20:00 -3°C° 0 mm 2 m/s 758 mmHg 71%
21:00 -3°C° 0 mm 2 m/s 759 mmHg 75%
22:00 -3°C° 0 mm 2 m/s 759 mmHg 78%
23:00 -1°C° 0 mm 1 m/s 759 mmHg 79%

Mâine, 9 Martie, Marţi

Timp Temperatura Precipitaţii Vânt Presiune Umiditate
00:00 -1°C° 0 mm 1 m/s 759 mmHg 79%
01:00 -1°C° 0 mm 1 m/s 759 mmHg 79%
02:00 -1°C° 0 mm 1 m/s 758 mmHg 79%
03:00 -2°C° 0 mm 0 m/s 758 mmHg 79%
04:00 -2°C° 0 mm 0 m/s 758 mmHg 79%
05:00 -2°C° 0 mm 0 m/s 758 mmHg 78%
06:00 -1°C° 0 mm 1 m/s 758 mmHg 78%
07:00 -1°C° 0 mm 1 m/s 758 mmHg 77%
08:00 0°C° 0 mm 1 m/s 758 mmHg 71%
09:00 +1°C° 0 mm 1 m/s 758 mmHg 65%
10:00 +2°C° 0 mm 1 m/s 758 mmHg 60%
11:00 +2°C° 0 mm 1 m/s 758 mmHg 54%
12:00 +3°C° 0 mm 1 m/s 758 mmHg 48%
13:00 +3°C° 0 mm 2 m/s 757 mmHg 43%
14:00 +4°C° 0 mm 1 m/s 757 mmHg 42%
15:00 +4°C° 0 mm 1 m/s 757 mmHg 41%
16:00 +4°C° 0 mm 1 m/s 756 mmHg 41%
17:00 +2°C° 0 mm 1 m/s 756 mmHg 45%
18:00 +1°C° 0 mm 1 m/s 756 mmHg 50%
19:00 0°C° 0 mm 1 m/s 756 mmHg 55%
20:00 0°C° 0 mm 1 m/s 757 mmHg 57%
21:00 -1°C° 0 mm 1 m/s 757 mmHg 60%
22:00 -1°C° 0 mm 1 m/s 757 mmHg 62%
23:00 -1°C° 0 mm 1 m/s 757 mmHg 63%

Poimâine, 10 Martie, Miercuri

Timp Temperatura Precipitaţii Vânt Presiune Umiditate
00:00 -1°C° 0 mm 1 m/s 756 mmHg 64%
01:00 -1°C° 0 mm 1 m/s 756 mmHg 64%
02:00 -1°C° 0 mm 1 m/s 756 mmHg 64%
03:00 -1°C° 0 mm 1 m/s 756 mmHg 63%
04:00 -2°C° 0 mm 0 m/s 756 mmHg 62%
05:00 -2°C° 0 mm 0 m/s 756 mmHg 60%
06:00 -2°C° 0 mm 0 m/s 756 mmHg 58%
07:00 -2°C° 0 mm 0 m/s 756 mmHg 57%
08:00 +1°C° 0 mm 1 m/s 756 mmHg 51%
09:00 +2°C° 0 mm 1 m/s 756 mmHg 46%
10:00 +3°C° 0 mm 1 m/s 756 mmHg 41%
11:00 +3°C° 0 mm 2 m/s 756 mmHg 38%
12:00 +4°C° 0 mm 2 m/s 756 mmHg 36%
13:00 +5°C° 0 mm 2 m/s 756 mmHg 33%
14:00 +4°C° 0 mm 2 m/s 756 mmHg 35%
15:00 +4°C° 0 mm 2 m/s 755 mmHg 37%
16:00 +4°C° 0 mm 2 m/s 755 mmHg 39%
17:00 +3°C° 0 mm 2 m/s 755 mmHg 44%
18:00 +1°C° 0 mm 3 m/s 755 mmHg 49%
19:00 -1°C° 0 mm 3 m/s 755 mmHg 53%
20:00 -1°C° 0 mm 3 m/s 754 mmHg 54%
21:00 -1°C° 0 mm 3 m/s 754 mmHg 56%
22:00 -2°C° 0 mm 4 m/s 754 mmHg 57%
23:00 -2°C° 0 mm 4 m/s 753 mmHg 62%

11 Martie, Joi

Timp Temperatura Precipitaţii Vânt Presiune Umiditate
00:00 -2°C° 0 mm 4 m/s 753 mmHg 68%
01:00 -2°C° 0 mm 4 m/s 752 mmHg 73%
02:00 -1°C° 0 mm 4 m/s 751 mmHg 78%
03:00 -1°C° 0 mm 5 m/s 750 mmHg 82%
04:00 -1°C° 0 mm 5 m/s 750 mmHg 87%
05:00 -2°C° 0.3 mm 6 m/s 749 mmHg 90%
06:00 -1°C° 0.3 mm 6 m/s 748 mmHg 92%
07:00 -1°C° 0.3 mm 6 m/s 747 mmHg 95%
08:00 -1°C° 0.9 mm 7 m/s 746 mmHg 95%
09:00 0°C° 0.9 mm 7 m/s 745 mmHg 95%
10:00 0°C° 0.9 mm 7 m/s 744 mmHg 95%
11:00 +2°C° 1.4 mm 7 m/s 743 mmHg 95%
12:00 +2°C° 1.4 mm 7 m/s 743 mmHg 95%
13:00 +3°C° 1.4 mm 6 m/s 742 mmHg 95%
14:00 +3°C° 1.3 mm 6 m/s 741 mmHg 95%
15:00 +4°C° 1.3 mm 6 m/s 740 mmHg 95%
16:00 +5°C° 1.3 mm 6 m/s 739 mmHg 94%
17:00 +5°C° 1.4 mm 7 m/s 739 mmHg 92%
18:00 +5°C° 1.4 mm 7 m/s 739 mmHg 90%
19:00 +5°C° 1.4 mm 8 m/s 739 mmHg 88%
20:00 +5°C° 0.2 mm 7 m/s 739 mmHg 87%
21:00 +4°C° 0.2 mm 7 m/s 740 mmHg 86%
22:00 +4°C° 0.2 mm 6 m/s 740 mmHg 84%
23:00 +3°C° 0 mm 6 m/s 741 mmHg 84%

12 Martie, Vineri

Timp Temperatura Precipitaţii Vânt Presiune Umiditate
00:00 +3°C° 0 mm 6 m/s 741 mmHg 83%
01:00 +3°C° 0 mm 7 m/s 741 mmHg 82%
02:00 +3°C° 0 mm 7 m/s 741 mmHg 81%
03:00 +3°C° 0 mm 7 m/s 741 mmHg 80%
04:00 +3°C° 0 mm 7 m/s 741 mmHg 79%
05:00 +1°C° 0.1 mm 8 m/s 741 mmHg 82%
06:00 +1°C° 0.1 mm 9 m/s 741 mmHg 85%
07:00 +1°C° 0.1 mm 10 m/s 742 mmHg 88%
08:00 +2°C° 0.2 mm 10 m/s 743 mmHg 81%
09:00 +3°C° 0.2 mm 10 m/s 743 mmHg 73%
10:00 +4°C° 0.2 mm 11 m/s 744 mmHg 65%
11:00 +4°C° 0.1 mm 11 m/s 745 mmHg 62%
12:00 +4°C° 0.1 mm 11 m/s 745 mmHg 58%
13:00 +4°C° 0.1 mm 11 m/s 745 mmHg 55%
14:00 +5°C° 0.2 mm 10 m/s 746 mmHg 56%
15:00 +5°C° 0.2 mm 9 m/s 746 mmHg 56%
16:00 +5°C° 0.2 mm 8 m/s 746 mmHg 57%
17:00 +4°C° 0 mm 7 m/s 746 mmHg 62%
18:00 +3°C° 0 mm 6 m/s 747 mmHg 67%
19:00 +3°C° 0 mm 4 m/s 747 mmHg 72%
20:00 +3°C° 0 mm 4 m/s 747 mmHg 74%
21:00 +2°C° 0 mm 5 m/s 747 mmHg 77%
22:00 +2°C° 0 mm 5 m/s 748 mmHg 79%
23:00 +1°C° 0 mm 5 m/s 747 mmHg 80%

13 Martie, Sâmbătă

Timp Temperatura Precipitaţii Vânt Presiune Umiditate
00:00 +1°C° 0 mm 5 m/s 747 mmHg 81%
01:00 +1°C° 0 mm 5 m/s 747 mmHg 83%
02:00 0°C° 0 mm 4 m/s 747 mmHg 84%
03:00 0°C° 0 mm 4 m/s 747 mmHg 85%
04:00 0°C° 0 mm 4 m/s 747 mmHg 86%
05:00 0°C° 0 mm 4 m/s 746 mmHg 85%
06:00 0°C° 0 mm 4 m/s 746 mmHg 85%
07:00 0°C° 0 mm 5 m/s 746 mmHg 84%
08:00 +1°C° 0 mm 5 m/s 746 mmHg 80%
09:00 +3°C° 0 mm 5 m/s 746 mmHg 75%
10:00 +4°C° 0 mm 6 m/s 746 mmHg 71%
11:00 +5°C° 0 mm 6 m/s 746 mmHg 69%
12:00 +7°C° 0 mm 6 m/s 745 mmHg 67%
13:00 +7°C° 0 mm 6 m/s 745 mmHg 66%
14:00 +5°C° 0.1 mm 6 m/s 745 mmHg 73%
15:00 +5°C° 0.1 mm 6 m/s 745 mmHg 80%
16:00 +4°C° 0.1 mm 6 m/s 745 mmHg 87%
17:00 +3°C° 0 mm 5 m/s 745 mmHg 88%
18:00 +3°C° 0 mm 4 m/s 745 mmHg 90%
19:00 +3°C° 0 mm 3 m/s 745 mmHg 91%
20:00 +2°C° 0 mm 3 m/s 746 mmHg 91%
21:00 +2°C° 0 mm 3 m/s 746 mmHg 92%
22:00 +2°C° 0 mm 3 m/s 746 mmHg 92%
23:00 +1°C° 0 mm 3 m/s 746 mmHg 92%
Arată mai mult

Formular de consimțământ

Meteoprog și furnizorii noștri de servicii pot stoca și accesa date personale, precum cookies, identificatori de dispozitiv sau alte tehnologii similare pe dispozitivul dumneavoastră și procesa astfel de date pentru a personaliza conținutul și reclamele, dar și pentru a oferi caracteristici de social media și pentru a analiza traficul.

  • Stocarea și/sau accesarea informațiilor pe dispozitivul dumneavoastră

    Cookies, identificatori de dispozitiv sau alte informații pot fi stocate sau accesate pe dispozitiv în scopurile indicate mai sus.

  • Reclame și conținut personalizat, evaluarea reclamelor și a conținutului, informații despre audiențe și dezvoltarea produselor

    Reclamele și conținutul pot fi personalizate pe baza unui profil. Pot fi adăugate date suplimentare pentru a personaliza mai bine reclamele și conținutul. Performanța reclamelor și conținutului poate fi măsurată. Pot fi obținute informații despre utilizatorii care au văzut reclamele și conținutul. Aceste date pot fi utilizate pentru a dezvolta sau îmbunătăți experiența utilizatorilor, sistemele și software-ul.

Dând clic pe ‘Sunt de acord’, permiteți utilizarea cookie-urilor menționate, a identificatorilor de dispozitiv, balizelor web sau altor tehnologii similare. Setările pot fi modificate din browser-ul dispozitivului dumneavoastră.

În anumite scopuri, interesele legitime pot prima asupra consimțământului. Puteți citi mai multe informații în acest sens în Politica privind Confidențialitatea Datelor și Cookie.